| time (UTC) | temp F | wind direction | speed knots | gust knots | rain 1hr in | rain 24hr in | rain mn in | humidity % | barometer mb |
| 20260505040844 | 54 | 333 | 0.0 | 0.0 | 0.00 | 0.00 | 0.00 | 81 | 1009.9 |
| 20260505040338 | 54 | 336 | 0.0 | 0.0 | 0.00 | 0.00 | 0.00 | 81 | 1010.0 |
| 20260505035326 | 54 | 274 | 0.0 | 0.0 | 0.00 | 0.00 | 0.00 | 80 | 1010.0 |
| 20260505033302 | 54 | 311 | 0.0 | 0.0 | 0.00 | 0.00 | 0.00 | 80 | 1010.2 |
| 20260505031745 | 54 | 315 | 0.0 | 0.0 | 0.00 | 0.00 | 0.00 | 80 | 1010.2 |
| 20260505031238 | 54 | 27 | 0.0 | 0.0 | 0.00 | 0.00 | 0.00 | 80 | 1010.2 |
| 20260505030733 | 55 | 17 | 0.0 | 0.0 | 0.00 | 0.00 | 0.00 | 81 | 1010.2 |
| 20260505025721 | 55 | 19 | 0.0 | 0.0 | 0.00 | 0.00 | 0.00 | 81 | 1010.3 |
| 20260505025215 | 55 | 289 | 0.0 | 0.0 | 0.00 | 0.00 | 0.00 | 79 | 1010.2 |
| 20260505024709 | 55 | 350 | 0.0 | 0.0 | 0.00 | 0.00 | 0.00 | 79 | 1010.3 |
| 20260505023657 | 55 | 152 | 0.0 | 0.0 | 0.00 | 0.00 | 0.00 | 79 | 1010.4 |
| 20260505023151 | 55 | 294 | 0.0 | 0.0 | 0.00 | 0.00 | 0.00 | 78 | 1010.3 |
| 20260505022644 | 55 | 277 | 0.0 | 0.0 | 0.00 | 0.00 | 0.00 | 78 | 1010.4 |
| 20260505022138 | 55 | 296 | 0.0 | 0.0 | 0.00 | 0.00 | 0.00 | 78 | 1010.4 |
| 20260505020620 | 55 | 315 | 0.0 | 0.0 | 0.00 | 0.00 | 0.00 | 78 | 1010.4 |
| 20260505020114 | 55 | 285 | 0.0 | 0.0 | 0.00 | 0.00 | 0.00 | 78 | 1010.4 |
| 20260505015608 | 55 | 312 | 0.0 | 0.0 | 0.00 | 0.00 | 0.00 | 77 | 1010.4 |
| 20260505015102 | 55 | 315 | 0.0 | 0.0 | 0.00 | 0.00 | 0.00 | 77 | 1010.4 |
| 20260505014556 | 55 | 315 | 0.0 | 0.0 | 0.00 | 0.00 | 0.00 | 78 | 1010.4 |
| 20260505013544 | 56 | 184 | 0.0 | 0.0 | 0.00 | 0.00 | 0.00 | 77 | 1010.4 |
| 20260505013038 | 56 | 314 | 0.0 | 0.0 | 0.00 | 0.00 | 0.00 | 77 | 1010.3 |
| 20260505012532 | 56 | 263 | 0.0 | 0.0 | 0.00 | 0.00 | 0.00 | 78 | 1010.5 |
| 20260505012026 | 56 | 58 | 0.0 | 0.0 | 0.00 | 0.00 | 0.00 | 78 | 1010.5 |
| 20260505011014 | 56 | 18 | 0.0 | 0.0 | 0.00 | 0.00 | 0.00 | 76 | 1010.6 |
| 20260505010002 | 56 | 39 | 0.0 | 0.0 | 0.00 | 0.00 | 0.00 | 76 | 1010.7 |
| 20260505004949 | 57 | 0 | 0.0 | 0.0 | 0.00 | 0.00 | 0.00 | 75 | 1010.8 |
| 20260505004443 | 57 | 0 | 0.0 | 0.0 | 0.00 | 0.00 | 0.00 | 74 | 1010.9 |
| 20260505003937 | 57 | 356 | 0.0 | 0.0 | 0.00 | 0.00 | 0.00 | 74 | 1010.9 |
| 20260505003431 | 57 | 282 | 0.0 | 0.0 | 0.00 | 0.00 | 0.00 | 74 | 1010.9 |
| 20260505002925 | 57 | 135 | 0.0 | 0.0 | 0.00 | 0.00 | 0.00 | 74 | 1011.0 |
| 20260505002419 | 57 | 224 | 0.0 | 0.0 | 0.00 | 0.00 | 0.00 | 74 | 1011.1 |
| 20260505001913 | 57 | 207 | 0.0 | 0.0 | 0.00 | 0.00 | 0.00 | 73 | 1011.1 |
| 20260505001407 | 57 | 322 | 0.0 | 0.0 | 0.00 | 0.00 | 0.00 | 72 | 1011.1 |
| 20260505000901 | 58 | 293 | 0.0 | 0.0 | 0.00 | 0.00 | 0.00 | 72 | 1011.2 |
| 20260505000354 | 58 | 315 | 0.0 | 0.0 | 0.00 | 0.00 | 0.00 | 72 | 1011.2 |
| 20260504235848 | 58 | 315 | 0.0 | 0.0 | 0.00 | 0.00 | 0.00 | 71 | 1011.1 |
| 20260504233317 | 59 | 315 | 0.0 | 0.0 | 0.00 | 0.00 | 0.00 | 71 | 1011.3 |
| 20260504232811 | 59 | 322 | 0.0 | 0.0 | 0.00 | 0.00 | 0.00 | 71 | 1011.4 |
| 20260504232305 | 59 | 353 | 0.0 | 0.0 | 0.00 | 0.00 | 0.00 | 72 | 1011.4 |
| 20260504231759 | 59 | 309 | 0.0 | 0.0 | 0.00 | 0.00 | 0.00 | 72 | 1011.4 |
| 20260504225734 | 59 | 0 | 0.0 | 0.0 | 0.00 | 0.00 | 0.00 | 73 | 1011.6 |
| 20260504224215 | 60 | 321 | 0.0 | 0.0 | 0.00 | 0.00 | 0.00 | 70 | 1012.0 |
| 20260504222656 | 60 | 312 | 0.0 | 0.0 | 0.00 | 0.00 | 0.00 | 66 | 1012.3 |
| 20260504222150 | 60 | 118 | 0.0 | 0.0 | 0.00 | 0.00 | 0.00 | 65 | 1012.7 |
| 20260504221644 | 60 | 22 | 0.0 | 0.0 | 0.00 | 0.00 | 0.00 | 62 | 1012.7 |
| 20260504221137 | 61 | 19 | 0.0 | 0.0 | 0.00 | 0.00 | 0.00 | 61 | 1013.0 |
| 20260504220631 | 61 | 36 | 0.0 | 0.9 | 0.00 | 0.00 | 0.00 | 60 | 1013.2 |
| 20260504220125 | 61 | 89 | 0.9 | 1.7 | 0.00 | 0.00 | 0.00 | 59 | 1013.4 |
| 20260504215619 | 61 | 321 | 0.0 | 1.7 | 0.00 | 0.00 | 0.00 | 57 | 1013.6 |
| 20260504215112 | 61 | 356 | 0.0 | 0.0 | 0.00 | 0.00 | 0.00 | 55 | 1013.5 |
| 20260504214606 | 61 | 315 | 0.0 | 0.0 | 0.00 | 0.00 | 0.00 | 54 | 1013.5 |
| 20260504214059 | 61 | 292 | 0.0 | 1.7 | 0.00 | 0.00 | 0.00 | 55 | 1013.5 |
| 20260504213553 | 61 | 272 | 0.9 | 1.7 | 0.00 | 0.00 | 0.00 | 54 | 1013.4 |
| 20260504212541 | 61 | 291 | 0.0 | 0.0 | 0.00 | 0.00 | 0.00 | 52 | 1012.7 |
| 20260504212034 | 61 | 315 | 0.0 | 0.0 | 0.00 | 0.00 | 0.00 | 51 | 1012.5 |
| 20260504211528 | 62 | 315 | 0.0 | 0.0 | 0.00 | 0.00 | 0.00 | 51 | 1012.4 |
| 20260504211021 | 62 | 315 | 0.0 | 0.0 | 0.00 | 0.00 | 0.00 | 51 | 1012.3 |
| 20260504210515 | 62 | 308 | 0.0 | 0.0 | 0.00 | 0.00 | 0.00 | 51 | 1012.3 |
| 20260504210009 | 62 | 336 | 0.0 | 0.0 | 0.00 | 0.00 | 0.00 | 50 | 1012.3 |
| 20260504205502 | 62 | 0 | 0.0 | 0.0 | 0.00 | 0.00 | 0.00 | 50 | 1012.3 |
| 20260504204956 | 63 | 0 | 0.0 | 0.0 | 0.00 | 0.00 | 0.00 | 49 | 1012.2 |
| 20260504204450 | 63 | 0 | 0.0 | 0.0 | 0.00 | 0.00 | 0.00 | 49 | 1012.3 |
| 20260504203943 | 63 | 0 | 0.0 | 0.0 | 0.00 | 0.00 | 0.00 | 49 | 1012.3 |
| 20260504203437 | 63 | 0 | 0.0 | 0.0 | 0.00 | 0.00 | 0.00 | 48 | 1012.4 |
| 20260504202930 | 64 | 0 | 0.0 | 0.0 | 0.00 | 0.00 | 0.00 | 48 | 1012.3 |
| 20260504202424 | 64 | 0 | 0.0 | 0.0 | 0.00 | 0.00 | 0.00 | 48 | 1012.3 |
| 20260504201917 | 64 | 0 | 0.0 | 0.0 | 0.00 | 0.00 | 0.00 | 47 | 1012.3 |
| 20260504201411 | 65 | 0 | 0.0 | 0.0 | 0.00 | 0.00 | 0.00 | 47 | 1012.3 |
| 20260504200904 | 65 | 0 | 0.0 | 0.0 | 0.00 | 0.00 | 0.00 | 47 | 1012.4 |
| 20260504200358 | 65 | 0 | 0.0 | 0.0 | 0.00 | 0.00 | 0.00 | 47 | 1012.4 |
| 20260504195851 | 65 | 0 | 0.0 | 0.0 | 0.00 | 0.00 | 0.00 | 47 | 1012.5 |
| 20260504195345 | 65 | 0 | 0.0 | 0.0 | 0.00 | 0.00 | 0.00 | 46 | 1012.5 |
| 20260504194839 | 65 | 0 | 0.0 | 0.0 | 0.00 | 0.00 | 0.00 | 46 | 1012.5 |
| 20260504194332 | 66 | 0 | 0.0 | 0.0 | 0.00 | 0.00 | 0.00 | 45 | 1012.4 |
| 20260504193825 | 66 | 0 | 0.0 | 0.0 | 0.00 | 0.00 | 0.00 | 45 | 1012.5 |
| 20260504193319 | 66 | 0 | 0.0 | 0.0 | 0.00 | 0.00 | 0.00 | 44 | 1012.5 |
| 20260504192812 | 66 | 0 | 0.0 | 0.0 | 0.00 | 0.00 | 0.00 | 44 | 1012.5 |
| 20260504191759 | 67 | 0 | 0.0 | 0.0 | 0.00 | 0.00 | 0.00 | 44 | 1012.3 |
| 20260504191252 | 67 | 348 | 0.0 | 0.0 | 0.00 | 0.00 | 0.00 | 43 | 1012.3 |
| 20260504190746 | 67 | 357 | 0.0 | 1.7 | 0.00 | 0.00 | 0.00 | 43 | 1012.3 |
| 20260504185733 | 68 | 328 | 0.9 | 1.7 | 0.00 | 0.00 | 0.00 | 42 | 1012.3 |
| 20260504184719 | 68 | 328 | 0.9 | 1.7 | 0.00 | 0.00 | 0.00 | 42 | 1012.2 |
| 20260504184213 | 69 | 333 | 0.9 | 1.7 | 0.00 | 0.00 | 0.00 | 41 | 1012.1 |
| 20260504183706 | 69 | 342 | 0.0 | 0.9 | 0.00 | 0.00 | 0.00 | 41 | 1012.0 |
| 20260504183159 | 70 | 318 | 0.9 | 1.7 | 0.00 | 0.00 | 0.00 | 41 | 1012.0 |
| 20260504182652 | 70 | 334 | 0.9 | 1.7 | 0.00 | 0.00 | 0.00 | 40 | 1012.0 |
| 20260504182145 | 71 | 334 | 0.9 | 1.7 | 0.00 | 0.00 | 0.00 | 40 | 1012.0 |
| 20260504181639 | 71 | 327 | 0.9 | 1.7 | 0.00 | 0.00 | 0.00 | 40 | 1012.0 |
| 20260504181132 | 72 | 336 | 0.9 | 1.7 | 0.00 | 0.00 | 0.00 | 39 | 1011.9 |
| 20260504180118 | 73 | 333 | 0.9 | 1.7 | 0.00 | 0.00 | 0.00 | 38 | 1011.9 |
| 20260504175611 | 73 | 336 | 0.0 | 0.9 | 0.00 | 0.00 | 0.00 | 38 | 1011.9 |
| 20260504175104 | 74 | 336 | 0.0 | 0.9 | 0.00 | 0.00 | 0.00 | 38 | 1011.9 |
| 20260504174557 | 74 | 348 | 0.0 | 0.9 | 0.00 | 0.00 | 0.00 | 37 | 1011.9 |
| 20260504173543 | 75 | 342 | 0.0 | 0.9 | 0.00 | 0.00 | 0.00 | 37 | 1011.9 |
| 20260504173036 | 75 | 0 | 0.9 | 1.7 | 0.00 | 0.00 | 0.00 | 36 | 1011.9 |
| 20260504172529 | 75 | 354 | 0.0 | 0.9 | 0.00 | 0.00 | 0.00 | 36 | 1012.0 |
| 20260504172022 | 76 | 359 | 0.0 | 1.7 | 0.00 | 0.00 | 0.00 | 35 | 1012.0 |
| 20260504171008 | 76 | 0 | 0.0 | 1.7 | 0.00 | 0.00 | 0.00 | 35 | 1012.0 |
| 20260504170501 | 76 | 3 | 0.0 | 0.9 | 0.00 | 0.00 | 0.00 | 35 | 1012.0 |
| 20260504160334 | 79 | 15 | 0.9 | 1.7 | 0.00 | 0.00 | 0.00 | 33 | 1012.3 |
| 20260504150714 | 80 | 360 | 0.9 | 2.6 | 0.00 | 0.00 | 0.00 | 31 | 1012.6 |
| 20260504150207 | 81 | 3 | 0.9 | 2.6 | 0.00 | 0.00 | 0.00 | 31 | 1012.6 |
| 20260504141053 | 81 | 15 | 0.9 | 1.7 | 0.00 | 0.00 | 0.00 | 31 | 1012.9 |
| 20260504140545 | 81 | 9 | 0.9 | 1.7 | 0.00 | 0.00 | 0.00 | 31 | 1013.0 |
| 20260504130417 | 81 | 13 | 0.9 | 2.6 | 0.00 | 0.00 | 0.00 | 30 | 1013.4 |
| 20260504120248 | 81 | 73 | 1.7 | 4.3 | 0.00 | 0.00 | 0.00 | 29 | 1013.8 |
| 20260504110627 | 79 | 27 | 0.9 | 2.6 | 0.00 | 0.00 | 0.00 | 33 | 1014.4 |
| 20260504110120 | 79 | 98 | 0.9 | 3.5 | 0.00 | 0.00 | 0.00 | 32 | 1014.5 |
| 20260504100459 | 79 | 20 | 1.7 | 1.7 | 0.00 | 0.00 | 0.00 | 34 | 1015.1 |
| 20260504081223 | 76 | 359 | 0.0 | 1.7 | 0.00 | 0.00 | 0.00 | 38 | 1014.8 |
| 20260504080716 | 76 | 36 | 0.9 | 1.7 | 0.00 | 0.00 | 0.00 | 38 | 1014.8 |
| 20260504050328 | 48 | 193 | 0.0 | 0.0 | 0.00 | 0.00 | 0.00 | 69 | 1014.4 |
| 20260504045822 | 48 | 301 | 0.0 | 0.0 | 0.00 | 0.00 | 0.00 | 69 | 1014.4 |
| 20260504045316 | 47 | 219 | 0.0 | 0.0 | 0.00 | 0.00 | 0.00 | 70 | 1014.4 |
| 20260504044811 | 47 | 246 | 0.0 | 0.0 | 0.00 | 0.00 | 0.00 | 68 | 1014.3 |
| 20260504044305 | 47 | 73 | 0.0 | 0.0 | 0.00 | 0.00 | 0.00 | 69 | 1014.2 |
| 20260504043759 | 47 | 225 | 0.0 | 0.0 | 0.00 | 0.00 | 0.00 | 67 | 1014.2 |
| 20260504043253 | 47 | 312 | 0.0 | 0.0 | 0.00 | 0.00 | 0.00 | 66 | 1014.2 |